ITY456 LIRN-LIEO

Flight info

Callsign ITY456
Flight time 0h 59m
Altitude 35000
Route EDOPA DCT TAGEL DCT POKAV DCT ROXAN DCT ATNET
Aircraft E190/M-SDE3GILORVW/S

Departure

Time 2026-04-28 18:05
Airport Naples International Airport (LIRN)

Arrival

Time 2026-04-28 19:04
Airport Olbia Costa Smeralda Airport (LIEO)
Time Latitude Longitude Altitude Speed Heading
2026-04-28 17:42 40.87775 14.28010 296 ft 0 kts 141°
2026-04-28 17:55 40.87789 14.27995 299 ft 4 kts 138°
2026-04-28 17:55 40.87808 14.27970 300 ft 4 kts 131°
2026-04-28 17:55 40.87825 14.27942 297 ft 4 kts 117°
2026-04-28 17:56 40.87832 14.27911 299 ft 4 kts 73°
2026-04-28 17:56 40.87830 14.27902 297 ft 0 kts 58°
2026-04-28 17:59 40.87837 14.27917 297 ft 4 kts 58°
2026-04-28 17:59 40.87858 14.27955 297 ft 6 kts 51°
2026-04-28 17:59 40.87893 14.28013 296 ft 10 kts 51°
2026-04-28 17:59 40.87943 14.28094 294 ft 13 kts 43°
2026-04-28 18:00 40.88028 14.28155 293 ft 15 kts 47°
2026-04-28 18:00 40.88065 14.28293 287 ft 17 kts 97°
2026-04-28 18:00 40.88050 14.28462 284 ft 19 kts 97°
2026-04-28 18:00 40.88056 14.28624 282 ft 17 kts 54°
2026-04-28 18:01 40.88132 14.28756 278 ft 19 kts 53°
2026-04-28 18:01 40.88218 14.28906 275 ft 22 kts 53°
2026-04-28 18:01 40.88314 14.29072 271 ft 23 kts 51°
2026-04-28 18:01 40.88418 14.29252 266 ft 26 kts 52°
2026-04-28 18:02 40.88531 14.29450 261 ft 28 kts 53°
2026-04-28 18:02 40.88654 14.29660 255 ft 30 kts 52°
2026-04-28 18:02 40.88783 14.29888 248 ft 32 kts 52°
2026-04-28 18:02 40.88902 14.30088 241 ft 27 kts 52°
2026-04-28 18:03 40.88994 14.30240 236 ft 15 kts 50°
2026-04-28 18:03 40.89089 14.30220 233 ft 16 kts 329°
2026-04-28 18:03 40.89119 14.30168 234 ft 3 kts 240°
2026-04-28 18:04 40.89069 14.30061 237 ft 40 kts 237°
2026-04-28 18:04 40.88784 14.29461 256 ft 112 kts 238°
2026-04-28 18:04 40.88280 14.28401 461 ft 149 kts 234°
2026-04-28 18:05 40.87675 14.27242 1234 ft 161 kts 235°
2026-04-28 18:05 40.87175 14.26419 1744 ft 177 kts 220°
2026-04-28 18:05 40.85569 14.25950 2650 ft 189 kts 172°
2026-04-28 18:05 40.84267 14.26280 3440 ft 192 kts 169°
2026-04-28 18:06 40.82932 14.26557 4263 ft 195 kts 172°
2026-04-28 18:06 40.81484 14.26533 4713 ft 221 kts 190°
2026-04-28 18:06 40.79999 14.25778 5281 ft 239 kts 214°
2026-04-28 18:06 40.78841 14.24249 5912 ft 252 kts 231°
2026-04-28 18:07 40.77781 14.22337 6581 ft 264 kts 233°
2026-04-28 18:07 40.76702 14.20366 7273 ft 272 kts 233°
2026-04-28 18:07 40.75574 14.18333 8048 ft 276 kts 233°
2026-04-28 18:07 40.74438 14.16284 8856 ft 279 kts 234°
2026-04-28 18:08 40.73287 14.14198 9614 ft 284 kts 234°
2026-04-28 18:08 40.72119 14.12079 10230 ft 293 kts 234°
2026-04-28 18:08 40.70890 14.09816 10489 ft 313 kts 235°
2026-04-28 18:08 40.69629 14.07464 10748 ft 332 kts 235°
2026-04-28 18:09 40.68285 14.04926 11216 ft 341 kts 236°
2026-04-28 18:09 40.66926 14.02377 11852 ft 345 kts 235°
2026-04-28 18:09 40.65532 13.99768 12561 ft 347 kts 236°
2026-04-28 18:09 40.64149 13.97199 13280 ft 349 kts 235°
2026-04-28 18:10 40.62741 13.94572 14001 ft 351 kts 236°
2026-04-28 18:10 40.61334 13.91932 14630 ft 353 kts 236°
2026-04-28 18:10 40.59915 13.89269 15234 ft 357 kts 235°
2026-04-28 18:10 40.58487 13.86575 15803 ft 360 kts 236°
2026-04-28 18:11 40.57048 13.83852 16374 ft 364 kts 236°
2026-04-28 18:11 40.55603 13.81088 16936 ft 367 kts 236°
2026-04-28 18:11 40.54170 13.78336 17485 ft 371 kts 236°
2026-04-28 18:11 40.52711 13.75521 18047 ft 374 kts 236°
2026-04-28 18:12 40.51237 13.72678 18563 ft 377 kts 236°
2026-04-28 18:12 40.49751 13.69810 19065 ft 381 kts 236°
2026-04-28 18:12 40.48255 13.66911 19578 ft 385 kts 236°
2026-04-28 18:12 40.46750 13.63985 20149 ft 387 kts 236°
2026-04-28 18:13 40.45233 13.61031 20692 ft 390 kts 237°
2026-04-28 18:13 40.43713 13.58056 21189 ft 394 kts 237°
2026-04-28 18:13 40.42204 13.55092 21655 ft 397 kts 237°
2026-04-28 18:13 40.40668 13.52059 22105 ft 400 kts 237°
2026-04-28 18:14 40.39125 13.49008 22540 ft 403 kts 237°
2026-04-28 18:14 40.37576 13.45928 22959 ft 406 kts 237°
2026-04-28 18:14 40.36020 13.42833 23370 ft 408 kts 237°
2026-04-28 18:14 40.34454 13.39712 23719 ft 412 kts 237°
2026-04-28 18:15 40.32877 13.36554 24054 ft 414 kts 238°
2026-04-28 18:15 40.31403 13.33287 24392 ft 416 kts 246°
2026-04-28 18:15 40.30551 13.29680 24738 ft 416 kts 263°
2026-04-28 18:15 40.30519 13.25884 25129 ft 416 kts 278°
2026-04-28 18:16 40.31236 13.22256 25517 ft 416 kts 290°
2026-04-28 18:16 40.32260 13.18699 25888 ft 418 kts 291°
2026-04-28 18:16 40.33297 13.15128 26266 ft 419 kts 291°
2026-04-28 18:16 40.34329 13.11550 26644 ft 420 kts 291°
2026-04-28 18:17 40.35446 13.08002 26956 ft 421 kts 297°
2026-04-28 18:17 40.36773 13.04565 27274 ft 423 kts 296°
2026-04-28 18:17 40.37990 13.01100 27573 ft 425 kts 294°
2026-04-28 18:17 40.39154 12.97522 27864 ft 426 kts 293°
2026-04-28 18:18 40.40272 12.93913 28164 ft 428 kts 292°
2026-04-28 18:18 40.41371 12.90267 28412 ft 430 kts 292°
2026-04-28 18:18 40.42452 12.86605 28685 ft 431 kts 292°
2026-04-28 18:18 40.43164 12.84164 28870 ft 432 kts 291°
2026-04-28 18:19 40.43167 12.77094 29149 ft 0 kts 291°
2026-04-28 18:19 40.44657 12.72646 29149 ft 0 kts 291°
2026-04-28 18:19 40.40961 12.64962 29149 ft 0 kts 291°
2026-04-28 18:19 40.41481 12.62538 29149 ft 0 kts 291°
2026-04-28 18:20 40.42311 12.61004 29149 ft 0 kts 291°
2026-04-28 18:20 40.41517 12.59512 29338 ft 427 kts 297°
2026-04-28 18:20 40.43215 12.56351 29674 ft 427 kts 316°
2026-04-28 18:20 40.45524 12.53913 30082 ft 426 kts 323°
2026-04-28 18:21 40.47878 12.51552 30436 ft 425 kts 320°
2026-04-28 18:21 40.50049 12.48988 30795 ft 423 kts 314°
2026-04-28 18:21 40.52010 12.46114 31157 ft 421 kts 308°
2026-04-28 18:21 40.53750 12.43020 31482 ft 420 kts 304°
2026-04-28 18:22 40.55271 12.39731 31798 ft 418 kts 298°
2026-04-28 18:22 40.56545 12.36299 32134 ft 417 kts 295°
2026-04-28 18:22 40.57727 12.32827 32440 ft 415 kts 294°
2026-04-28 18:22 40.58856 12.29334 32749 ft 414 kts 292°
2026-04-28 18:23 40.59941 12.25833 33052 ft 412 kts 292°
2026-04-28 18:23 40.60969 12.22451 34128 ft 387 kts 292°
2026-04-28 18:23 40.61966 12.19210 34704 ft 377 kts 291°
2026-04-28 18:23 40.62896 12.16039 34880 ft 366 kts 290°
2026-04-28 18:24 40.63785 12.12949 35036 ft 354 kts 290°
2026-04-28 18:24 40.64359 12.10957 35107 ft 352 kts 290°
2026-04-28 18:24 40.66343 12.03948 35058 ft 343 kts 290°
2026-04-28 18:25 40.67148 12.01093 35071 ft 330 kts 290°
2026-04-28 18:25 40.67933 11.98297 35088 ft 320 kts 290°
2026-04-28 18:26 40.71782 11.91363 35084 ft 324 kts 326°
2026-04-28 18:26 40.73841 11.90099 35112 ft 330 kts 340°
2026-04-28 18:26 40.76114 11.89535 35138 ft 336 kts 353°
2026-04-28 18:26 40.78469 11.89716 35167 ft 344 kts
2026-04-28 18:27 40.80751 11.90634 35197 ft 350 kts 20°
2026-04-28 18:27 40.82884 11.92269 35155 ft 358 kts 33°
2026-04-28 18:27 40.84713 11.94528 35042 ft 363 kts 47°
2026-04-28 18:27 40.86117 11.97308 35060 ft 366 kts 61°
2026-04-28 18:28 40.87030 12.00461 35062 ft 370 kts 74°
2026-04-28 18:28 40.87723 12.07239 35025 ft 373 kts 88°
2026-04-28 18:29 40.87353 12.14071 35054 ft 373 kts 103°
2026-04-28 18:29 40.85758 12.20562 35059 ft 374 kts 110°
2026-04-28 18:30 40.83968 12.27027 35055 ft 374 kts 110°
2026-04-28 18:30 40.81815 12.33269 35056 ft 372 kts 128°
2026-04-28 18:30 40.80142 12.35808 35057 ft 370 kts 141°
2026-04-28 18:31 40.78084 12.37818 35056 ft 366 kts 154°
2026-04-28 18:31 40.75762 12.39168 35059 ft 361 kts 168°
2026-04-28 18:31 40.73311 12.39793 35063 ft 355 kts 181°
2026-04-28 18:31 40.70865 12.39675 35052 ft 350 kts 194°
2026-04-28 18:32 40.68544 12.38834 35066 ft 343 kts 208°
2026-04-28 18:32 40.64793 12.35298 35053 ft 330 kts 235°
2026-04-28 18:32 40.63541 12.32807 35067 ft 325 kts 248°
2026-04-28 18:33 40.62797 12.30020 35058 ft 321 kts 260°
2026-04-28 18:33 40.62232 12.25195 35043 ft 319 kts 269°
2026-04-28 18:33 40.62351 12.21349 35056 ft 317 kts 280°
2026-04-28 18:34 40.62827 12.18513 35057 ft 317 kts 285°
2026-04-28 18:34 40.63856 12.13831 35051 ft 317 kts 287°
2026-04-28 18:35 40.65232 12.08350 35054 ft 317 kts 289°
2026-04-28 18:35 40.66702 12.02859 35052 ft 317 kts 289°
2026-04-28 18:36 40.68209 11.97395 35053 ft 317 kts 290°
2026-04-28 18:36 40.69721 11.91958 35053 ft 317 kts 290°
2026-04-28 18:37 40.71247 11.86489 35054 ft 317 kts 290°
2026-04-28 18:37 40.72768 11.81029 35055 ft 317 kts 290°
2026-04-28 18:38 40.74289 11.75567 35053 ft 317 kts 289°
2026-04-28 18:38 40.75815 11.70092 35029 ft 318 kts 290°
2026-04-28 18:39 40.77340 11.64612 35027 ft 318 kts 289°
2026-04-28 18:39 40.78849 11.59159 35033 ft 318 kts 289°
2026-04-28 18:40 40.80361 11.53670 35052 ft 318 kts 289°
2026-04-28 18:40 40.81912 11.48056 35112 ft 332 kts 289°
2026-04-28 18:41 40.83498 11.42165 35071 ft 349 kts 284°
2026-04-28 18:41 40.83881 11.38969 35109 ft 356 kts 272°
2026-04-28 18:41 40.83793 11.35659 35115 ft 365 kts 267°
2026-04-28 18:41 40.83605 11.32263 34987 ft 376 kts 267°
2026-04-28 18:42 40.83413 11.28787 35022 ft 383 kts 266°
2026-04-28 18:42 40.83003 11.21636 34728 ft 403 kts 266°
2026-04-28 18:42 40.82794 11.17916 34448 ft 406 kts 266°
2026-04-28 18:43 40.82587 11.14154 33846 ft 415 kts 266°
2026-04-28 18:43 40.82375 11.10334 33340 ft 414 kts 266°
2026-04-28 18:43 40.82164 11.06576 32740 ft 416 kts 266°
2026-04-28 18:43 40.81950 11.02766 32201 ft 416 kts 266°
2026-04-28 18:44 40.81733 10.98948 31647 ft 417 kts 266°
2026-04-28 18:44 40.81294 10.91272 30536 ft 420 kts 265°
2026-04-28 18:44 40.81072 10.87418 29938 ft 421 kts 265°
2026-04-28 18:45 40.80847 10.83561 29419 ft 421 kts 265°
2026-04-28 18:45 40.80621 10.79694 28829 ft 422 kts 265°
2026-04-28 18:45 40.80395 10.75848 28287 ft 419 kts 265°
2026-04-28 18:45 40.80171 10.72065 27733 ft 416 kts 265°
2026-04-28 18:46 40.79945 10.68264 27184 ft 413 kts 265°
2026-04-28 18:46 40.79720 10.64488 26640 ft 410 kts 265°
2026-04-28 18:46 40.79496 10.60749 26100 ft 407 kts 265°
2026-04-28 18:46 40.79273 10.57034 25562 ft 404 kts 265°
2026-04-28 18:47 40.79049 10.53351 25019 ft 400 kts 265°
2026-04-28 18:47 40.78829 10.49755 24500 ft 396 kts 265°
2026-04-28 18:47 40.78609 10.46147 23983 ft 393 kts 265°
2026-04-28 18:47 40.78388 10.42552 23426 ft 391 kts 265°
2026-04-28 18:48 40.78168 10.38985 22943 ft 387 kts 265°
2026-04-28 18:48 40.77947 10.35458 22411 ft 384 kts 265°
2026-04-28 18:48 40.77734 10.31971 21913 ft 380 kts 265°
2026-04-28 18:48 40.77520 10.28497 21415 ft 378 kts 265°
2026-04-28 18:49 40.77306 10.25040 20906 ft 376 kts 265°
2026-04-28 18:49 40.77163 10.22754 20575 ft 376 kts 264°
2026-04-28 18:49 40.76874 10.18230 19919 ft 371 kts 264°
2026-04-28 18:49 40.76653 10.14865 19424 ft 365 kts 264°
2026-04-28 18:50 40.76435 10.11541 18934 ft 362 kts 264°
2026-04-28 18:50 40.76214 10.08245 18461 ft 361 kts 264°
2026-04-28 18:50 40.75995 10.04954 17960 ft 358 kts 263°
2026-04-28 18:50 40.75779 10.01704 17517 ft 355 kts 263°
2026-04-28 18:51 40.75564 9.98475 17031 ft 351 kts 264°
2026-04-28 18:51 40.75349 9.95267 16559 ft 350 kts 264°
2026-04-28 18:51 40.75215 9.92118 16109 ft 348 kts 272°
2026-04-28 18:51 40.75544 9.88953 15659 ft 347 kts 272°
2026-04-28 18:52 40.75175 9.85845 15227 ft 339 kts 251°
2026-04-28 18:52 40.74408 9.82947 14792 ft 329 kts 252°
2026-04-28 18:52 40.73766 9.80090 14360 ft 321 kts 254°
2026-04-28 18:52 40.73189 9.77279 13935 ft 314 kts 255°
2026-04-28 18:53 40.72648 9.74500 13354 ft 312 kts 256°
2026-04-28 18:53 40.72127 9.71732 12775 ft 309 kts 256°
2026-04-28 18:53 40.71623 9.68983 12263 ft 306 kts 256°
2026-04-28 18:53 40.71137 9.66280 11833 ft 299 kts 256°
2026-04-28 18:54 40.70675 9.63663 11421 ft 294 kts 256°
2026-04-28 18:54 40.70217 9.61056 11003 ft 289 kts 256°
2026-04-28 18:54 40.69767 9.58482 10584 ft 286 kts 256°
2026-04-28 18:54 40.69322 9.55934 10183 ft 283 kts 256°
2026-04-28 18:55 40.68881 9.53415 9757 ft 281 kts 256°
2026-04-28 18:55 40.68591 9.51760 9457 ft 279 kts 255°
2026-04-28 18:55 40.68014 9.48470 8901 ft 276 kts 255°
2026-04-28 18:55 40.67584 9.46021 8520 ft 272 kts 256°
2026-04-28 18:56 40.67161 9.43593 8143 ft 270 kts 256°
2026-04-28 18:56 40.66738 9.41190 7764 ft 268 kts 255°
2026-04-28 18:56 40.66320 9.38805 7395 ft 266 kts 255°
2026-04-28 18:56 40.65907 9.36441 7023 ft 264 kts 255°
2026-04-28 18:57 40.65495 9.34092 6665 ft 263 kts 255°
2026-04-28 18:57 40.65362 9.31698 6299 ft 266 kts 279°
2026-04-28 18:57 40.66181 9.29567 5915 ft 269 kts 310°
2026-04-28 18:57 40.67731 9.28212 5538 ft 271 kts 341°
2026-04-28 18:58 40.69589 9.28108 5175 ft 270 kts 14°
2026-04-28 18:58 40.71143 9.29261 5315 ft 239 kts 43°
2026-04-28 18:58 40.72115 9.30680 6268 ft 199 kts 51°
2026-04-28 18:58 40.73248 9.31918 5893 ft 219 kts 32°
2026-04-28 18:59 40.74616 9.32847 5480 ft 221 kts 23°
2026-04-28 18:59 40.76040 9.33543 5022 ft 223 kts 19°
2026-04-28 18:59 40.77535 9.34159 4606 ft 222 kts 16°
2026-04-28 18:59 40.78959 9.34663 4605 ft 204 kts 13°
2026-04-28 19:00 40.80296 9.35223 4418 ft 204 kts 24°
2026-04-28 19:00 40.81620 9.36197 3428 ft 226 kts 38°
2026-04-28 19:00 40.82622 9.37799 2726 ft 224 kts 60°
2026-04-28 19:00 40.83396 9.39500 2400 ft 208 kts 58°
2026-04-28 19:01 40.84241 9.40985 2090 ft 195 kts 53°
2026-04-28 19:01 40.84990 9.42382 1821 ft 179 kts 57°
2026-04-28 19:01 40.85626 9.43653 1550 ft 153 kts 57°
2026-04-28 19:01 40.86223 9.44780 1299 ft 139 kts 56°
2026-04-28 19:02 40.86756 9.45788 1089 ft 132 kts 57°
2026-04-28 19:02 40.87271 9.46783 913 ft 129 kts 60°
2026-04-28 19:02 40.87775 9.47742 701 ft 124 kts 57°
2026-04-28 19:02 40.88256 9.48657 557 ft 121 kts 59°
2026-04-28 19:03 40.88729 9.49578 345 ft 122 kts 61°
2026-04-28 19:03 40.89199 9.50488 132 ft 118 kts 60°
2026-04-28 19:03 40.89640 9.51345 33 ft 102 kts 53°
2026-04-28 19:03 40.89963 9.51950 31 ft 60 kts 57°
2026-04-28 19:04 40.90156 9.52316 33 ft 44 kts 54°
2026-04-28 19:04 40.90325 9.52636 32 ft 41 kts 51°
2026-04-28 19:04 40.90453 9.52609 33 ft 6 kts 273°
2026-04-28 19:04 40.90453 9.52600 33 ft 2 kts 273°
2026-04-28 19:05 40.90454 9.52575 33 ft 4 kts 273°
2026-04-28 19:05 40.90456 9.52533 33 ft 6 kts 273°
2026-04-28 19:05 40.90447 9.52479 33 ft 7 kts 240°
2026-04-28 19:05 40.90414 9.52428 33 ft 8 kts 229°
2026-04-28 19:06 40.90387 9.52377 33 ft 2 kts 243°
2026-04-28 19:06 40.90381 9.52361 33 ft 4 kts 243°
2026-04-28 19:06 40.90359 9.52312 33 ft 6 kts 237°
2026-04-28 19:06 40.90334 9.52262 33 ft 7 kts 237°
2026-04-28 19:07 40.90303 9.52204 33 ft 8 kts 233°
2026-04-28 19:07 40.90266 9.52135 33 ft 10 kts 236°
2026-04-28 19:07 40.90227 9.52061 33 ft 9 kts 235°
2026-04-28 19:07 40.90187 9.51984 33 ft 11 kts 236°
2026-04-28 19:08 40.90177 9.51890 33 ft 10 kts 290°
2026-04-28 19:08 40.90208 9.51801 33 ft 11 kts 318°
2026-04-28 19:08 40.90229 9.51744 33 ft 7 kts 308°
2026-04-28 19:08 40.90260 9.51715 33 ft 4 kts 325°
2026-04-28 19:09 40.90270 9.51706 33 ft 0 kts 325°
2026-04-28 19:09 40.90271 9.51705 33 ft 0 kts 325°